Time,TemperatureF,DewpointF,PressureIn,WindDirection,WindDirectionDegrees,WindSpeedMPH,WindSpeedGustMPH,Humidity,HourlyPrecipIn,Conditions,Clouds,dailyrainin,SoftwareType,DateUTC
2013-02-17 00:22:00,27.0,-99.9,29.81,North,-999,-999.0,-999.0,-999,-99.99,,,-99.99,,2013-02-17 05:22:00,
2013-02-17 00:33:00,27.0,-99.9,29.81,North,-999,-999.0,-999.0,-999,-99.99,,,-99.99,,2013-02-17 05:33:00,
2013-02-17 00:42:00,27.0,-99.9,29.81,North,-999,-999.0,-999.0,-999,-99.99,,,-99.99,,2013-02-17 05:42:00,
2013-02-17 00:52:00,26.0,-99.9,29.80,North,-999,-999.0,-999.0,-999,-99.99,,,-99.99,,2013-02-17 05:52:00,
2013-02-17 01:32:00,26.0,-99.9,29.80,North,-999,-999.0,-999.0,-999,-99.99,,,-99.99,,2013-02-17 06:32:00,
2013-02-17 01:42:00,26.0,-99.9,29.80,North,-999,-999.0,-999.0,-999,-99.99,,,-99.99,,2013-02-17 06:42:00,
2013-02-17 02:52:00,26.0,-99.9,29.78,North,-999,-999.0,-999.0,-999,-99.99,,,-99.99,,2013-02-17 07:52:00,
2013-02-17 03:32:00,26.0,-99.9,29.78,North,-999,-999.0,-999.0,-999,-99.99,,,-99.99,,2013-02-17 08:32:00,
2013-02-17 03:42:00,26.0,-99.9,29.78,North,-999,-999.0,-999.0,-999,-99.99,,,-99.99,,2013-02-17 08:42:00,
2013-02-17 03:52:00,24.0,-99.9,29.79,North,-999,-999.0,-999.0,-999,-99.99,,,-99.99,,2013-02-17 08:52:00,
2013-02-17 04:21:00,24.0,-99.9,29.79,North,-999,-999.0,-999.0,-999,-99.99,,,-99.99,,2013-02-17 09:21:00,
2013-02-17 04:32:00,24.0,-99.9,29.79,North,-999,-999.0,-999.0,-999,-99.99,,,-99.99,,2013-02-17 09:32:00,
2013-02-17 04:42:00,24.0,-99.9,29.79,North,-999,-999.0,-999.0,-999,-99.99,,,-99.99,,2013-02-17 09:42:00,
2013-02-17 04:52:00,24.0,-99.9,29.79,North,-999,-999.0,-999.0,-999,-99.99,,,-99.99,,2013-02-17 09:52:00,
2013-02-17 05:22:00,24.0,-99.9,29.79,North,-999,-999.0,-999.0,-999,-99.99,,,-99.99,,2013-02-17 10:22:00,
2013-02-17 05:32:00,24.0,-99.9,29.79,North,-999,-999.0,-999.0,-999,-99.99,,,-99.99,,2013-02-17 10:32:00,
2013-02-17 05:42:00,24.0,-99.9,29.79,North,-999,-999.0,-999.0,-999,-99.99,,,-99.99,,2013-02-17 10:42:00,
2013-02-17 05:52:00,23.0,-99.9,29.79,North,-999,-999.0,-999.0,-999,-99.99,,,-99.99,,2013-02-17 10:52:00,
2013-02-17 06:22:00,23.0,-99.9,29.79,North,-999,-999.0,-999.0,-999,-99.99,,,-99.99,,2013-02-17 11:22:00,
2013-02-17 06:32:00,23.0,-99.9,29.79,North,-999,-999.0,-999.0,-999,-99.99,,,-99.99,,2013-02-17 11:32:00,
2013-02-17 06:42:00,23.0,-99.9,29.79,North,-999,-999.0,-999.0,-999,-99.99,,,-99.99,,2013-02-17 11:42:00,
2013-02-17 06:52:00,22.0,-99.9,29.79,North,-999,-999.0,-999.0,-999,-99.99,,,-99.99,,2013-02-17 11:52:00,
2013-02-17 07:22:00,22.0,-99.9,29.79,North,-999,-999.0,-999.0,-999,-99.99,,,-99.99,,2013-02-17 12:22:00,
2013-02-17 07:32:00,22.0,-99.9,29.79,North,-999,-999.0,-999.0,-999,-99.99,,,-99.99,,2013-02-17 12:32:00,
2013-02-17 07:42:00,22.0,-99.9,29.79,North,-999,-999.0,-999.0,-999,-99.99,,,-99.99,,2013-02-17 12:42:00,
2013-02-17 07:52:00,22.0,-99.9,29.81,North,-999,-999.0,-999.0,-999,-99.99,,,-99.99,,2013-02-17 12:52:00,
2013-02-17 08:32:00,22.0,-99.9,29.81,North,-999,-999.0,-999.0,-999,-99.99,,,-99.99,,2013-02-17 13:32:00,
2013-02-17 08:42:00,22.0,-99.9,29.81,North,-999,-999.0,-999.0,-999,-99.99,,,-99.99,,2013-02-17 13:42:00,
2013-02-17 08:52:00,24.0,-99.9,29.80,North,-999,-999.0,-999.0,-999,-99.99,,,-99.99,,2013-02-17 13:52:00,
2013-02-17 09:22:00,24.0,-99.9,29.80,North,-999,-999.0,-999.0,-999,-99.99,,,-99.99,,2013-02-17 14:22:00,
2013-02-17 09:32:00,24.0,-99.9,29.80,North,-999,-999.0,-999.0,-999,-99.99,,,-99.99,,2013-02-17 14:32:00,
2013-02-17 09:42:00,24.0,-99.9,29.80,North,-999,-999.0,-999.0,-999,-99.99,,,-99.99,,2013-02-17 14:42:00,
2013-02-17 09:52:00,24.0,-99.9,29.81,North,-999,-999.0,-999.0,-999,-99.99,,,-99.99,,2013-02-17 14:52:00,
2013-02-17 10:22:00,24.0,-99.9,29.81,North,-999,-999.0,-999.0,-999,-99.99,,,-99.99,,2013-02-17 15:22:00,
2013-02-17 10:32:00,24.0,-99.9,29.81,North,-999,-999.0,-999.0,-999,-99.99,,,-99.99,,2013-02-17 15:32:00,
2013-02-17 10:42:00,24.0,-99.9,29.81,North,-999,-999.0,-999.0,-999,-99.99,,,-99.99,,2013-02-17 15:42:00,
2013-02-17 10:52:00,27.0,-99.9,29.83,North,-999,-999.0,-999.0,-999,-99.99,,,-99.99,,2013-02-17 15:52:00,
2013-02-17 11:22:00,27.0,-99.9,29.83,North,-999,-999.0,-999.0,-999,-99.99,,,-99.99,,2013-02-17 16:22:00,
2013-02-17 11:32:00,27.0,-99.9,29.83,North,-999,-999.0,-999.0,-999,-99.99,,,-99.99,,2013-02-17 16:32:00,
2013-02-17 11:42:00,27.0,-99.9,29.83,North,-999,-999.0,-999.0,-999,-99.99,,,-99.99,,2013-02-17 16:42:00,
2013-02-17 11:52:00,28.0,-99.9,29.82,North,-999,-999.0,-999.0,-999,-99.99,,,-99.99,,2013-02-17 16:52:00,
2013-02-17 12:22:00,28.0,-99.9,29.82,North,-999,-999.0,-999.0,-999,-99.99,,,-99.99,,2013-02-17 17:22:00,
2013-02-17 12:32:00,28.0,-99.9,29.82,North,-999,-999.0,-999.0,-999,-99.99,,,-99.99,,2013-02-17 17:32:00,
2013-02-17 12:42:00,28.0,-99.9,29.82,North,-999,-999.0,-999.0,-999,-99.99,,,-99.99,,2013-02-17 17:42:00,
2013-02-17 12:52:00,27.0,-99.9,29.82,North,-999,-999.0,-999.0,-999,-99.99,,,-99.99,,2013-02-17 17:52:00,
2013-02-17 13:33:00,27.0,-99.9,29.82,North,-999,-999.0,-999.0,-999,-99.99,,,-99.99,,2013-02-17 18:33:00,
2013-02-17 13:42:00,27.0,-99.9,29.82,North,-999,-999.0,-999.0,-999,-99.99,,,-99.99,,2013-02-17 18:42:00,
2013-02-17 13:52:00,28.0,-99.9,29.83,North,-999,-999.0,-999.0,-999,-99.99,,,-99.99,,2013-02-17 18:52:00,
2013-02-17 14:22:00,28.0,-99.9,29.83,North,-999,-999.0,-999.0,-999,-99.99,,,-99.99,,2013-02-17 19:22:00,
2013-02-17 14:32:00,28.0,-99.9,29.83,North,-999,-999.0,-999.0,-999,-99.99,,,-99.99,,2013-02-17 19:32:00,
2013-02-17 14:42:00,28.0,-99.9,29.83,North,-999,-999.0,-999.0,-999,-99.99,,,-99.99,,2013-02-17 19:42:00,
2013-02-17 14:52:00,28.0,-99.9,29.84,North,-999,-999.0,-999.0,-999,-99.99,,,-99.99,,2013-02-17 19:52:00,
2013-02-17 15:22:00,28.0,-99.9,29.84,North,-999,-999.0,-999.0,-999,-99.99,,,-99.99,,2013-02-17 20:22:00,
2013-02-17 15:32:00,28.0,-99.9,29.84,North,-999,-999.0,-999.0,-999,-99.99,,,-99.99,,2013-02-17 20:32:00,
2013-02-17 15:43:00,28.0,-99.9,29.84,North,-999,-999.0,-999.0,-999,-99.99,,,-99.99,,2013-02-17 20:43:00,
2013-02-17 15:52:00,26.0,-99.9,29.86,North,-999,-999.0,-999.0,-999,-99.99,,,-99.99,,2013-02-17 20:52:00,
2013-02-17 16:22:00,26.0,-99.9,29.86,North,-999,-999.0,-999.0,-999,-99.99,,,-99.99,,2013-02-17 21:22:00,
2013-02-17 16:32:00,26.0,-99.9,29.86,North,-999,-999.0,-999.0,-999,-99.99,,,-99.99,,2013-02-17 21:32:00,
2013-02-17 16:42:00,26.0,-99.9,29.86,North,-999,-999.0,-999.0,-999,-99.99,,,-99.99,,2013-02-17 21:42:00,
2013-02-17 16:52:00,25.0,-99.9,29.88,North,-999,-999.0,-999.0,-999,-99.99,,,-99.99,,2013-02-17 21:52:00,
2013-02-17 17:22:00,25.0,-99.9,29.88,North,-999,-999.0,-999.0,-999,-99.99,,,-99.99,,2013-02-17 22:22:00,
2013-02-17 17:32:00,25.0,-99.9,29.88,North,-999,-999.0,-999.0,-999,-99.99,,,-99.99,,2013-02-17 22:32:00,
2013-02-17 17:42:00,25.0,-99.9,29.88,North,-999,-999.0,-999.0,-999,-99.99,,,-99.99,,2013-02-17 22:42:00,
2013-02-17 17:52:00,24.0,-99.9,29.92,North,-999,-999.0,-999.0,-999,-99.99,,,-99.99,,2013-02-17 22:52:00,
2013-02-17 18:22:00,24.0,-99.9,29.92,North,-999,-999.0,-999.0,-999,-99.99,,,-99.99,,2013-02-17 23:22:00,
2013-02-17 18:32:00,24.0,-99.9,29.92,North,-999,-999.0,-999.0,-999,-99.99,,,-99.99,,2013-02-17 23:32:00,
2013-02-17 18:42:00,24.0,-99.9,29.92,North,-999,-999.0,-999.0,-999,-99.99,,,-99.99,,2013-02-17 23:42:00,
2013-02-17 18:52:00,22.0,-99.9,29.95,North,-999,-999.0,-999.0,-999,-99.99,,,-99.99,,2013-02-17 23:52:00,
2013-02-17 19:22:00,22.0,-99.9,29.95,North,-999,-999.0,-999.0,-999,-99.99,,,-99.99,,2013-02-18 00:22:00,
2013-02-17 19:32:00,22.0,-99.9,29.95,North,-999,-999.0,-999.0,-999,-99.99,,,-99.99,,2013-02-18 00:32:00,
2013-02-17 19:42:00,22.0,-99.9,29.95,North,-999,-999.0,-999.0,-999,-99.99,,,-99.99,,2013-02-18 00:42:00,
2013-02-17 19:52:00,21.0,-99.9,29.99,North,-999,-999.0,-999.0,-999,-99.99,,,-99.99,,2013-02-18 00:52:00,
2013-02-17 20:22:00,21.0,-99.9,29.99,North,-999,-999.0,-999.0,-999,-99.99,,,-99.99,,2013-02-18 01:22:00,
2013-02-17 20:32:00,21.0,-99.9,29.99,North,-999,-999.0,-999.0,-999,-99.99,,,-99.99,,2013-02-18 01:32:00,
2013-02-17 20:42:00,21.0,-99.9,29.99,North,-999,-999.0,-999.0,-999,-99.99,,,-99.99,,2013-02-18 01:42:00,
2013-02-17 20:52:00,19.0,-99.9,30.03,North,-999,-999.0,-999.0,-999,-99.99,,,-99.99,,2013-02-18 01:52:00,
2013-02-17 21:22:00,19.0,-99.9,30.03,North,-999,-999.0,-999.0,-999,-99.99,,,-99.99,,2013-02-18 02:22:00,
2013-02-17 21:32:00,19.0,-99.9,30.03,North,-999,-999.0,-999.0,-999,-99.99,,,-99.99,,2013-02-18 02:32:00,
2013-02-17 21:42:00,19.0,-99.9,30.03,North,-999,-999.0,-999.0,-999,-99.99,,,-99.99,,2013-02-18 02:42:00,
2013-02-17 21:52:00,17.0,-99.9,30.07,North,-999,-999.0,-999.0,-999,-99.99,,,-99.99,,2013-02-18 02:52:00,
2013-02-17 22:22:00,17.0,-99.9,30.07,North,-999,-999.0,-999.0,-999,-99.99,,,-99.99,,2013-02-18 03:22:00,
2013-02-17 22:32:00,17.0,-99.9,30.07,North,-999,-999.0,-999.0,-999,-99.99,,,-99.99,,2013-02-18 03:32:00,
2013-02-17 22:42:00,17.0,-99.9,30.07,North,-999,-999.0,-999.0,-999,-99.99,,,-99.99,,2013-02-18 03:42:00,
2013-02-17 22:52:00,17.0,-99.9,30.08,North,-999,-999.0,-999.0,-999,-99.99,,,-99.99,,2013-02-18 03:52:00,
2013-02-17 23:22:00,17.0,-99.9,30.08,North,-999,-999.0,-999.0,-999,-99.99,,,-99.99,,2013-02-18 04:22:00,
2013-02-17 23:32:00,17.0,-99.9,30.08,North,-999,-999.0,-999.0,-999,-99.99,,,-99.99,,2013-02-18 04:32:00,
2013-02-17 23:42:00,17.0,-99.9,30.08,North,-999,-999.0,-999.0,-999,-99.99,,,-99.99,,2013-02-18 04:42:00,
2013-02-17 23:52:00,17.0,-99.9,30.11,North,-999,-999.0,-999.0,-999,-99.99,,,-99.99,,2013-02-18 04:52:00,